Satellite-Ground Cal/Val Site Overpasses Predictions

Prediction of Satellite NPP Overpassing Cal/Val Site: Antarctic Dome C

Ground Cal/Val Site Location: Latitude: -75.10, Longitude: 123.35; Satellite-Ground Site NADIR distance within 100 km.

Table of predicted overpasses for the next 14.0 days since TLE Epoch: 6/15/2016
Interval Starting Time Ending Time Minimum Distance Time Minimum Distance (km)
1 06/16/2016 07:32:26 06/16/2016 07:32:55 06/16/2016 07:32:41 2.77
2 06/19/2016 14:55:52 06/19/2016 14:56:21 06/19/2016 14:56:06 20.69
3 06/20/2016 14:37:10 06/20/2016 14:37:25 06/20/2016 14:37:17 86.38
4 06/21/2016 07:38:42 06/21/2016 07:39:09 06/21/2016 07:38:55 36.93
5 06/22/2016 07:19:56 06/22/2016 07:20:16 06/22/2016 07:20:06 73.13
6 06/24/2016 15:02:10 06/24/2016 15:02:34 06/24/2016 15:02:22 57.71
7 06/25/2016 14:43:19 06/25/2016 14:43:44 06/25/2016 14:43:32 51.43
8 06/26/2016 07:45:01 06/26/2016 07:45:21 06/26/2016 07:45:11 72.11
9 06/27/2016 07:26:08 06/27/2016 07:26:35 06/27/2016 07:26:22 35.82
